Location: Vihti�l�
(61.3833°N, 23.0667°E)
Time: 03:25:28
(UTC+00:00)

NOSS 3-4 (A) - Pass Details

Date: 29 November 2020
Orbit: 879 x 1333 km, 63.4° (Epoch: 18 January)

Event Time Altitude Azimuth Distance (km) Brightness Sun altitude
Exits shadow 04:00:46 11° 216° (SW) 2,493 5.4 -20.6°
Maximum altitude 04:06:21 58° 140° (SE) 1,114 4.0 -20.0°
Drops below altitude 10° 04:12:48 10° 64° (ENE) 2,842 6.7 -19.2°
Sets 04:15:36 0° 60° (ENE) 3,867 7.4 -18.9°
